Location: Azul
(36.7830°S, 59.8500°W)
Time: 00:54:12
(UTC-03:00)

STARS - Pass Details

Date: 24 October 2021
Orbit: 623 x 638 km, 98.2° (Epoch: 30 November)

Event Time Altitude Azimuth Distance (km) Brightness Sun altitude
Exits shadow 23:20:36 14° 234° (SW) 1,792 ? -37.3°
Drops below altitude 10° 23:21:27 10° 225° (SW) 2,030 ? -37.4°
Sets 23:24:07 0° 209° (SSW) 2,945 ? -37.6°
